Retour au catalogue

ATLAS 5 CENTAUR DEB

LostHEO
NORAD 43956·DEBRIS·🇺🇸 United States

Lancé Sep 17, 2014 depuis Cape Canaveral Space Force Station

Loading…

Prochains Passages (prochaines 24 heures)

TLE

PériméSource: Space-Track

Époque: May 19, 2026, 00:33 UTC

1 43956U 14055K   26139.02316465  .00000011  00000-0  00000-0 0  9992
2 43956  20.9728 102.4950 5075149 242.0586  58.0678  1.92105117 53577

Suivez ATLAS 5 CENTAUR DEB en temps réel avec AllMySat

Download on the App Store